When you browse on this site, cookies collect data to enhance your experience and personalize the content and advertising you see.
Visit our Privacy Policy to learn more. By continuing to use the site, you agree to this use of cookies and data.
  • en Suisse
  • Liste des pays
  • À 7 jours
  • Température de l'eau
  • Carte météo
  • Widgets météo
  • user-avatar
    Se connecter

    Météo par heure à Arakaka

    Ce jour, 23 Août, Vendredi

    Heure Température Précipitation Vent Pression Humidité
    00:00 +25°C° 0 mm 1 m/s 755 mmHg 99%
    01:00 +22°C° 0 mm 0 m/s 754 mmHg 99%
    02:00 +22°C° 0 mm 0 m/s 754 mmHg 99%
    03:00 +22°C° 0 mm 0 m/s 754 mmHg 99%
    04:00 +22°C° 0 mm 0 m/s 754 mmHg 99%
    05:00 +22°C° 0 mm 0 m/s 754 mmHg 99%
    06:00 +25°C° 0 mm 1 m/s 754 mmHg 97%
    07:00 +26°C° 0 mm 1 m/s 755 mmHg 95%
    08:00 +26°C° 0 mm 1 m/s 755 mmHg 94%
    09:00 +29°C° 0 mm 1 m/s 755 mmHg 80%
    10:00 +31°C° 0 mm 1 m/s 755 mmHg 67%
    11:00 +34°C° 0 mm 2 m/s 755 mmHg 54%
    12:00 +34°C° 0 mm 1 m/s 754 mmHg 50%
    13:00 +35°C° 0 mm 1 m/s 753 mmHg 47%
    14:00 +36°C° 0 mm 1 m/s 753 mmHg 43%
    15:00 +35°C° 0 mm 1 m/s 752 mmHg 49%
    16:00 +34°C° 0 mm 1 m/s 752 mmHg 54%
    17:00 +33°C° 0 mm 1 m/s 752 mmHg 60%
    18:00 +31°C° 0.1 mm 1 m/s 752 mmHg 71%
    19:00 +28°C° 0.1 mm 1 m/s 753 mmHg 82%
    20:00 +26°C° 0.1 mm 1 m/s 753 mmHg 93%
    21:00 +25°C° 0.1 mm 1 m/s 754 mmHg 94%
    22:00 +25°C° 0.1 mm 1 m/s 754 mmHg 95%
    23:00 +25°C° 0.1 mm 1 m/s 754 mmHg 97%

    Demain, 24 Août, Samedi

    Heure Température Précipitation Vent Pression Humidité
    00:00 +24°C° 0 mm 1 m/s 754 mmHg 97%
    01:00 +24°C° 0 mm 1 m/s 754 mmHg 98%
    02:00 +22°C° 0 mm 0 m/s 753 mmHg 99%
    03:00 +22°C° 0 mm 0 m/s 753 mmHg 99%
    04:00 +22°C° 0 mm 0 m/s 754 mmHg 99%
    05:00 +22°C° 0 mm 0 m/s 754 mmHg 99%
    06:00 +23°C° 0 mm 0 m/s 754 mmHg 94%
    07:00 +26°C° 0 mm 1 m/s 755 mmHg 90%
    08:00 +28°C° 0 mm 1 m/s 755 mmHg 85%
    09:00 +30°C° 0 mm 1 m/s 755 mmHg 74%
    10:00 +32°C° 0 mm 1 m/s 755 mmHg 63%
    11:00 +34°C° 0 mm 1 m/s 755 mmHg 52%
    12:00 +34°C° 0 mm 1 m/s 754 mmHg 50%
    13:00 +35°C° 0 mm 1 m/s 753 mmHg 47%
    14:00 +36°C° 0 mm 1 m/s 753 mmHg 45%
    15:00 +35°C° 0.2 mm 2 m/s 752 mmHg 57%
    16:00 +32°C° 0.2 mm 2 m/s 752 mmHg 68%
    17:00 +30°C° 0.2 mm 2 m/s 752 mmHg 80%
    18:00 +28°C° 0 mm 2 m/s 752 mmHg 85%
    19:00 +27°C° 0 mm 1 m/s 753 mmHg 89%
    20:00 +26°C° 0 mm 1 m/s 754 mmHg 94%
    21:00 +25°C° 0 mm 1 m/s 754 mmHg 95%
    22:00 +25°C° 0 mm 1 m/s 754 mmHg 97%
    23:00 +25°C° 0 mm 1 m/s 755 mmHg 98%

    Après-demain, 25 Août, Dimanche

    Heure Température Précipitation Vent Pression Humidité
    00:00 +25°C° 0 mm 1 m/s 754 mmHg 99%
    01:00 +22°C° 0 mm 0 m/s 754 mmHg 99%
    02:00 +22°C° 0 mm 0 m/s 753 mmHg 99%
    03:00 +22°C° 0 mm 0 m/s 753 mmHg 99%
    04:00 +22°C° 0 mm 0 m/s 753 mmHg 99%
    05:00 +22°C° 0 mm 0 m/s 753 mmHg 99%
    06:00 +23°C° 0 mm 0 m/s 754 mmHg 96%
    07:00 +24°C° 0 mm 0 m/s 754 mmHg 92%
    08:00 +25°C° 0 mm 0 m/s 755 mmHg 89%
    09:00 +29°C° 0 mm 1 m/s 754 mmHg 78%
    10:00 +31°C° 0 mm 1 m/s 754 mmHg 68%
    11:00 +32°C° 0 mm 1 m/s 754 mmHg 58%
    12:00 +33°C° 0 mm 1 m/s 754 mmHg 52%
    13:00 +35°C° 0 mm 1 m/s 753 mmHg 47%
    14:00 +36°C° 0 mm 1 m/s 752 mmHg 41%
    15:00 +34°C° 0 mm 1 m/s 752 mmHg 48%
    16:00 +33°C° 0 mm 1 m/s 752 mmHg 54%
    17:00 +32°C° 0 mm 1 m/s 751 mmHg 61%
    18:00 +30°C° 0.1 mm 1 m/s 752 mmHg 69%
    19:00 +28°C° 0.1 mm 1 m/s 753 mmHg 78%
    20:00 +26°C° 0.1 mm 1 m/s 753 mmHg 86%
    21:00 +25°C° 0 mm 1 m/s 753 mmHg 89%
    22:00 +25°C° 0 mm 1 m/s 754 mmHg 92%
    23:00 +24°C° 0 mm 1 m/s 754 mmHg 95%

    26 Août, Lundi

    Heure Température Précipitation Vent Pression Humidité
    00:00 +22°C° 0 mm 0 m/s 753 mmHg 96%
    01:00 +21°C° 0 mm 0 m/s 753 mmHg 97%
    02:00 +21°C° 0 mm 0 m/s 752 mmHg 98%
    03:00 +21°C° 0 mm 0 m/s 753 mmHg 99%
    04:00 +21°C° 0 mm 0 m/s 753 mmHg 99%
    05:00 +21°C° 0 mm 0 m/s 753 mmHg 99%
    06:00 +22°C° 0 mm 0 m/s 753 mmHg 92%
    07:00 +24°C° 0 mm 0 m/s 754 mmHg 85%
    08:00 +26°C° 0 mm 0 m/s 754 mmHg 79%
    09:00 +30°C° 0 mm 1 m/s 754 mmHg 68%
    10:00 +32°C° 0 mm 1 m/s 754 mmHg 57%
    11:00 +34°C° 0 mm 1 m/s 754 mmHg 45%
    12:00 +35°C° 0 mm 1 m/s 753 mmHg 42%
    13:00 +36°C° 0 mm 1 m/s 752 mmHg 39%
    14:00 +36°C° 0 mm 1 m/s 751 mmHg 36%
    15:00 +35°C° 0 mm 1 m/s 751 mmHg 43%
    16:00 +34°C° 0 mm 1 m/s 751 mmHg 50%
    17:00 +34°C° 0 mm 2 m/s 751 mmHg 57%
    18:00 +31°C° 0 mm 2 m/s 751 mmHg 67%
    19:00 +28°C° 0 mm 1 m/s 752 mmHg 77%
    20:00 +26°C° 0 mm 1 m/s 752 mmHg 87%
    21:00 +26°C° 0 mm 1 m/s 753 mmHg 89%
    22:00 +25°C° 0 mm 1 m/s 753 mmHg 91%
    23:00 +25°C° 0 mm 1 m/s 753 mmHg 93%

    27 Août, Mardi

    Heure Température Précipitation Vent Pression Humidité
    00:00 +22°C° 0 mm 0 m/s 753 mmHg 94%
    01:00 +22°C° 0 mm 0 m/s 752 mmHg 96%
    02:00 +22°C° 0 mm 0 m/s 752 mmHg 97%
    03:00 +22°C° 0 mm 0 m/s 752 mmHg 97%
    04:00 +22°C° 0 mm 0 m/s 752 mmHg 97%
    05:00 +22°C° 0 mm 0 m/s 752 mmHg 98%
    06:00 +23°C° 0 mm 0 m/s 753 mmHg 90%
    07:00 +25°C° 0 mm 0 m/s 753 mmHg 83%
    08:00 +29°C° 0 mm 1 m/s 753 mmHg 75%
    09:00 +31°C° 0 mm 1 m/s 753 mmHg 66%
    10:00 +32°C° 0 mm 0 m/s 753 mmHg 56%
    11:00 +35°C° 0 mm 0 m/s 753 mmHg 46%
    12:00 +34°C° 0 mm 0 m/s 752 mmHg 48%
    13:00 +33°C° 0 mm 0 m/s 752 mmHg 50%
    14:00 +33°C° 0 mm 0 m/s 751 mmHg 52%
    15:00 +32°C° 0.8 mm 1 m/s 751 mmHg 65%
    16:00 +30°C° 0.8 mm 1 m/s 751 mmHg 79%
    17:00 +27°C° 0.8 mm 2 m/s 750 mmHg 93%
    18:00 +27°C° 0.1 mm 1 m/s 751 mmHg 94%
    19:00 +26°C° 0.1 mm 1 m/s 751 mmHg 96%
    20:00 +26°C° 0.1 mm 1 m/s 752 mmHg 97%
    21:00 +25°C° 0 mm 1 m/s 752 mmHg 97%
    22:00 +23°C° 0 mm 0 m/s 752 mmHg 98%
    23:00 +23°C° 0 mm 0 m/s 753 mmHg 98%

    28 Août, Mercredi

    Heure Température Précipitation Vent Pression Humidité
    00:00 +23°C° 0 mm 0 m/s 752 mmHg 98%
    01:00 +23°C° 0 mm 0 m/s 752 mmHg 98%
    02:00 +22°C° 0 mm 0 m/s 751 mmHg 98%
    03:00 +22°C° 0 mm 0 m/s 752 mmHg 98%
    04:00 +22°C° 0 mm 0 m/s 752 mmHg 98%
    05:00 +22°C° 0 mm 0 m/s 752 mmHg 98%
    06:00 +23°C° 0 mm 0 m/s 752 mmHg 94%
    07:00 +24°C° 0 mm 0 m/s 753 mmHg 90%
    08:00 +28°C° 0 mm 1 m/s 754 mmHg 86%
    09:00 +30°C° 0.1 mm 1 m/s 754 mmHg 76%
    10:00 +32°C° 0.1 mm 1 m/s 754 mmHg 67%
    11:00 +34°C° 0.1 mm 1 m/s 754 mmHg 58%
    12:00 +34°C° 0.2 mm 1 m/s 753 mmHg 57%
    13:00 +34°C° 0.2 mm 1 m/s 752 mmHg 56%
    14:00 +35°C° 0.2 mm 2 m/s 751 mmHg 55%
    15:00 +33°C° 0.1 mm 1 m/s 751 mmHg 58%
    16:00 +33°C° 0.1 mm 1 m/s 751 mmHg 61%
    17:00 +32°C° 0.1 mm 1 m/s 751 mmHg 64%
    18:00 +31°C° 0 mm 1 m/s 751 mmHg 71%
    19:00 +29°C° 0 mm 1 m/s 751 mmHg 78%
    20:00 +27°C° 0 mm 1 m/s 752 mmHg 85%
    21:00 +27°C° 0 mm 1 m/s 752 mmHg 87%
    22:00 +24°C° 0 mm 0 m/s 753 mmHg 88%
    23:00 +24°C° 0 mm 0 m/s 753 mmHg 90%
    Voir plus